BD-17

Last updated on May 9, 2019, 3:02 a.m. UTC

1 40549U 15019A   19128.27434575 -.00000164  00000-0  00000+0 0  9997
2 40549  53.6105 325.8693 0037864 187.2698 266.4927  1.00261708 15040
UTC
Height (km)
Latitude
Longitude
Inclination
Orbital Period
UTC large
Height (km)
Speed (km/s)
/
Latitude / Longitude
Inclination (degrees)
Orbital Period (minutes)
Azimuth
Elevation
Range (km)
Doppler Factor
iOS Compass Heading
iOS Angle

Next 30 passes for location: Hong Kong

Rise time Rise Azimuth (degrees) Set time Set Azimuth (degrees) Duration Max altitude (degrees)

No matching passes for this satellites